Flag for Germany Weather past 2 weeks in Friesoythe, Lower Saxony, Germany

Now
52 °F

Cool.


Feels Like: 51 °F
Forecast: 48 / 62 °F
Wind: 3 mph from Southwest

Location: Meppen-Mil

Current Time: Aug 22, 2014 at 10:39:42 PM

Latest Report: Aug 22, 2014 at 9:20 PM


Visibility: 6 mi

Pressure: 29.83 "Hg

Humidity: 94%

Dew point: 50 °F

Location of FriesoytheLocation

Historic Weather in Friesoythe — Graph

°F

Friesoythe temperature yesterday

Maximum temperature yesterday: 64 °F (at 3:20 PM)
Minimum temperature yesterday: 46 °F (at 5:20 AM)
Average temperature yesterday: 54 °F

Past Weeks' High & Low Weather Summary

 TemperatureHumidityPressure
High77 °F (Aug 8, 2:20 PM)100% (Aug 16, 12:20 AM)30.04 "Hg (Aug 16, 12:20 AM)
Low46 °F (Aug 21, 5:20 AM)40% (Aug 13, 3:20 PM)29.53 "Hg (Aug 10, 6:20 PM)
Average60 °F77%29.80 "Hg
* Reported Aug 7 9:20 PM — Aug 22 9:20 PM, Friesoythe, Weather by CustomWeather, © 2014

Note: Actual official high and low records may vary slightly from our data, if they occured in-between our weather recording intervals... More about our weather records

Advertising

Friesoythe weather history for previous 24 hours

 ConditionsComfort  
Time TempWeatherWind HumidityBarometerVisibility
9:20 PM
Aug 22
52 °FCool.3 mph94%29.83 "Hg6 mi
8:20 PM54 °FCool.3 mph88%29.83 "HgN/A
7:20 PM54 °FCool.2 mph94%29.80 "Hg6 mi
6:20 PM54 °FCool.5 mph88%29.80 "Hg3 mi
5:20 PM61 °FCool.7 mph68%29.77 "Hg6 mi
4:20 PM64 °FMild.13 mph52%29.80 "Hg6 mi
3:20 PM64 °FMild.10 mph52%29.80 "HgN/A
2:20 PM64 °FMild.12 mph49%29.80 "HgN/A
1:20 PM63 °FMild.9 mph56%29.80 "Hg6 mi
12:20 PM63 °FMild.9 mph52%29.83 "HgN/A
11:20 AM61 °FPartly sunny.10 mph59%29.83 "HgN/A
10:20 AM61 °FScattered clouds.9 mph63%29.83 "HgN/A
9:20 AM57 °FPartly sunny.8 mph72%29.83 "HgN/A
8:20 AM54 °FPassing clouds.7 mph77%29.83 "HgN/A
7:20 AM52 °FPartly cloudy.6 mph82%29.83 "HgN/A
6:20 AM52 °FPartly cloudy.6 mph82%29.83 "HgN/A
5:20 AM54 °FCool.5 mph77%29.86 "Hg6 mi
4:20 AM54 °FCool.6 mph82%29.86 "Hg6 mi
3:20 AM55 °FCool.5 mph77%29.86 "Hg5 mi
2:20 AM54 °FCool.5 mph82%29.89 "Hg5 mi
1:20 AM54 °FCool.3 mph82%29.89 "Hg5 mi
12:20 AM52 °FCool.1 mph94%29.92 "Hg2 mi
11:20 PM
Aug 21
50 °FCool.No wind94%29.92 "Hg0 mi
10:20 PM52 °FCool.No wind94%29.92 "Hg3 mi
Weather by CustomWeather, © 2014

See weather overviewHow to use our weather pages